Regional Weather Roundup
Issued by NWS

Current Version | Previous Version | Text Only | Print | Product List | Glossary On
Versions: 1 2 3 4 5 6 7 8 9 10 11 12 13 14 15 16 17 18 19 20 21 22 23 24 25 26 27 28 29 30 31 32 33 34 35 36 37 38 39 40 41 42 43 44 45 46 47 48 49 50
000
ASUS44 KOUN 230400
RWROK

WEATHER ROUNDUP FOR OKLAHOMA
NATIONAL WEATHER SERVICE NORMAN OK
1100 PM CDT TUE JUL 22 2014

NOTE: "FAIR" INDICATES FEW OR NO CLOUDS BELOW 12,000 FEET WITH NO
      SIGNIFICANT WEATHER AND/OR OBSTRUCTIONS TO VISIBILITY.

OKZ001>007-009>012-014-015-017-230500-
NORTHWEST OKLAHOMA AND THE PANHANDLE

CITY           SKY/WX    TMP DP  RH WIND       PRES   REMARKS
GAGE           MOCLDY    77  65  66 S8        30.14R
ENID/WOODRING  CLEAR     79  75  89 S3        30.07S
$$

OKZ016-021>023-033>039-044-045-230500-
SOUTHWEST OKLAHOMA

CITY           SKY/WX    TMP DP  RH WIND       PRES   REMARKS
LAWTON/REGL    CLEAR     84  69  60 S5        30.09R
LAWTON/FT SILL CLEAR     83  70  66 S7        30.09R
FREDERICK      CLEAR     81  70  69 SE8       30.07R
CLINTON        PTCLDY    81  66  60 SE7       30.14R
HOBART         PTCLDY    80  70  71 S8        30.12R
$$

OKZ018>020-024>031-230500-
CENTRAL OKLAHOMA

CITY           SKY/WX    TMP DP  RH WIND       PRES   REMARKS
OKLAHOMA CITY  PTCLDY    81  74  79 S5        30.09S
OKC/WILEY POST CLEAR     85  74  69 S7        30.09R HX  92
STILLWATER     CLEAR     80  74  81 CALM      30.07R
GUTHRIE        CLEAR     81  75  82 S5        30.08R
$$

OKZ008-013-054>072-230500-
NORTHEAST OKLAHOMA

CITY           SKY/WX    TMP DP  RH WIND       PRES   REMARKS
TULSA          CLEAR     86  75  69 S5        30.05R HX  95
TULSA/JONES    CLEAR     79  77  94 CALM      30.06R
PONCA CITY     CLEAR     85  74  69 S3        30.06S HX  92
BARTLESVILLE   CLEAR     76  74  93 CALM      30.07R
MUSKOGEE       CLEAR     78  76  93 S3        30.07R
$$

OKZ032-040>043-046>053-073>077-230500-
SOUTH CENTRAL/SOUTHEAST OKLAHOMA

CITY           SKY/WX    TMP DP  RH WIND       PRES   REMARKS
ARDMORE/DWNTWN CLEAR     79  72  78 CALM      30.08R
MCALESTER      CLEAR     76  74  93 S3        30.08R
$$



USA.gov is the U.S. government's official web portal to all federal, state and local government web resources and services.